Regional Weather Roundup
Issued by NWS Little Rock, AR

Home | Current Version | Previous Version | Text Only | Print | Product List | Glossary On
Versions: 1 2 3 4 5 6 7 8 9 10 11 12 13 14 15 16 17 18 19 20 21 22 23 24 25 26 27 28 29 30 31 32 33 34 35 36 37 38 39 40 41 42 43 44 45 46 47 48 49 50
000
ASUS44 KLZK 311205
RWRLZK

WEATHER ROUNDUP FOR ARKANSAS
NATIONAL WEATHER SERVICE LITTLE ROCK AR
600 AM CST SAT JAN 31 2015

NOTE: "FAIR" INDICATES FEW OR NO CLOUDS BELOW 12,000 FEET WITH NO
SIGNIFICANT WEATHER AND/OR OBSTRUCTIONS TO VISIBILITY.

ARZ001-003-010-029-311300-
NORTHWEST ARKANSAS

CITY           SKY/WX    TMP DP  RH WIND       PRES   REMARKS
FAYETTEVILLE   CLOUDY    39  26  59 CALM      30.23F
6HR MIN TEMP:  35; 6HR MAX TEMP:  41;

FORT SMITH     CLOUDY    41  28  60 E10       30.28F
6HR MIN TEMP:  41; 6HR MAX TEMP:  43;

HARRISON       CLOUDY    37  24  59 E7        30.29S
6HR MIN TEMP:  36; 6HR MAX TEMP:  37;

BENTONVILLE    CLOUDY    41  23  48 E6        30.24F
6HR MIN TEMP:  39; 6HR MAX TEMP:  43;

ROGERS         CLOUDY    40  26  57 E8        30.24F
6HR MIN TEMP:  39; 6HR MAX TEMP:  40;

SILOAM SPGS    MOCLDY    39  23  52 E3        30.24F
HIGHFILL       CLOUDY    40  26  57 E3        30.23F
6HR MIN TEMP:  39; 6HR MAX TEMP:  41;

SPRINGDALE     PTCLDY    41  25  52 E6        30.25
$$

ARZ004-005-016-311300-
NORTH CENTRAL ARKANSAS

CITY           SKY/WX    TMP DP  RH WIND       PRES   REMARKS
BATESVILLE     CLOUDY    36  28  75 CALM      30.35S
6HR MIN TEMP:  36; 6HR MAX TEMP:  37;

FLIPPIN        CLOUDY    36  23  60 CALM      30.33R
6HR MIN TEMP:  34; 6HR MAX TEMP:  36;

MTN HOME       CLOUDY    36  26  67 E3        30.32R
6HR MIN TEMP:  35; 6HR MAX TEMP:  37;

$$

ARZ040-041-311300-
WEST CENTRAL ARKANSAS

CITY           SKY/WX    TMP DP  RH WIND       PRES   REMARKS
MENA           CLOUDY    41  30  65 NE6       30.28S
MOUNT IDA      CLOUDY    40  28  62 SE7       30.27F
6HR MIN TEMP:  40; 6HR MAX TEMP:  42;

$$

ARZ009-017-025-026-028-311300-
NORTHEAST ARKANSAS

CITY           SKY/WX    TMP DP  RH WIND       PRES   REMARKS
CORNING        PTSUNNY   32  32 100 N3        30.38S
JONESBORO      CLOUDY    34  30  85 E5        30.36F WCI  30
6HR MIN TEMP:  31; 6HR MAX TEMP:  34;

NEWPORT        CLOUDY    35  33  92 CALM      30.37F
6HR MIN TEMP:  34; 6HR MAX TEMP:  36;

WALNUT RIDGE   CLOUDY    34  28  80 CALM      30.38S
6HR MIN TEMP:  32; 6HR MAX TEMP:  34;

BLYTHEVILLE    MOCLDY    33  27  78 SE3       30.39R
6HR MIN TEMP:  30; 6HR MAX TEMP:  35;

$$

ARZ022-023-033-042-044-311300-
CENTRAL ARKANSAS

CITY           SKY/WX    TMP DP  RH WIND       PRES   REMARKS
LITTLE ROCK    CLOUDY    40  28  62 E3        30.35S
6HR MIN TEMP:  39; 6HR MAX TEMP:  40;

N LITTLE ROCK    N/A     38  31  77 E6        30.35S
6HR MIN TEMP:  38; 6HR MAX TEMP:  39;

JACKSONVILLE   CLOUDY    36  30  78 NE2       30.34F
6HR MIN TEMP:  35; 6HR MAX TEMP:  38;

SEARCY         CLOUDY    37  30  75 CALM      30.38S
6HR MIN TEMP:  36; 6HR MAX TEMP:  38;

HOT SPRINGS    CLOUDY    40  27  59 E3        30.33F
6HR MIN TEMP:  40; 6HR MAX TEMP:  42;

RUSSELLVILLE   CLOUDY    39  27  62 VRB5      30.31F
6HR MIN TEMP:  39; 6HR MAX TEMP:  42;

CLINTON        FAIR      36  30  80 CALM      30.36S
$$

ARZ036-311300-
EAST ARKANSAS

CITY           SKY/WX    TMP DP  RH WIND       PRES   REMARKS
WEST MEMPHIS   CLOUDY    37  26  64 SE3       30.36S
6HR MIN TEMP:  33; 6HR MAX TEMP:  37;

$$

ARZ050-053-066-070-073-311300-
SOUTHWEST ARKANSAS

CITY           SKY/WX    TMP DP  RH WIND       PRES   REMARKS
ARKADELPHIA    PTSUNNY   39  31  73 NE3       30.35S
6HR MIN TEMP:  38; 6HR MAX TEMP:  39;

CAMDEN         MIX PCPN  37  28  70 MISG      30.33F
TEXARKANA      CLOUDY    40  29  64 E5        30.30S
6HR MIN TEMP:  40; 6HR MAX TEMP:  42;

EL DORADO      CLOUDY    37  30  75 NE5       30.32F
6HR MIN TEMP:  33; 6HR MAX TEMP:  37;

DE QUEEN       CLOUDY    41  29  62 E7        30.29F
6HR MIN TEMP:  41; 6HR MAX TEMP:  43;

$$

ARZ056-057-069-311300-
SOUTHEAST ARKANSAS

CITY           SKY/WX    TMP DP  RH WIND       PRES   REMARKS
PINE BLUFF     CLOUDY    38  29  70 E8        30.35F
6HR MIN TEMP:  35; 6HR MAX TEMP:  38;

STUTTGART      CLOUDY    37  28  70 E7        30.35S
6HR MIN TEMP:  37; 6HR MAX TEMP:  39;

MONTICELLO     PTCLDY    35  29  78 E5        30.34S WCI  31
6HR MIN TEMP:  31; 6HR MAX TEMP:  36;


$$




USA.gov is the U.S. government's official web portal to all federal, state and local government web resources and services.